,,Stat5,,Stat1,,Stat2,,Stat3,,Stat4,,Wind1,,Wind1,
time,status,PA1M_AVG,status,PR1M_SUM,status,RH1M_AVG,status,SR1M_AVG,status,TA1M_AVG,status,W1dAve1m,status,W1sAve1m,
2000-07-05, 00:00:00,VALID,916.311,VALID,0,VALID,98.9156,VALID,-0.0169808,VALID,17.9896,VALID,108,VALID,0,
2000-07-05, 00:01:00,VALID,916.286,VALID,0,VALID,98.8685,VALID,-0.0339617,VALID,17.9702,VALID,107,VALID,0,
2000-07-05, 00:02:00,VALID,916.253,VALID,0,VALID,98.8673,VALID,-0.0339617,VALID,17.9735,VALID,134,VALID,0.904688,
2000-07-05, 00:03:00,VALID,916.218,VALID,0,VALID,98.8685,VALID,-0.0509425,VALID,17.9926,VALID,80,VALID,0.794819,
2000-07-05, 00:04:00,VALID,916.233,VALID,0,VALID,98.8024,VALID,-0.0339617,VALID,17.9991,VALID,228,VALID,0.031467,
2000-07-05, 00:05:00,VALID,916.235,VALID,0,VALID,98.7706,VALID,-0.0509425,VALID,18.0025,VALID,154,VALID,0.000411184,
2000-07-05, 00:06:00,VALID,916.217,VALID,0,VALID,98.7414,VALID,-0.0679233,VALID,18.0191,VALID,71,VALID,0,
2000-07-05, 00:07:00,VALID,916.21,VALID,0,VALID,98.7019,VALID,-0.0339617,VALID,18.0318,VALID,75,VALID,0,
2000-07-05, 00:08:00,VALID,916.175,VALID,0,VALID,98.6638,VALID,-0.0849042,VALID,18.0316,VALID,95,VALID,0,
2000-07-05, 00:09:00,VALID,916.157,VALID,0,VALID,98.6524,VALID,-0.0679233,VALID,18.0413,VALID,123,VALID,0,
2000-07-05, 00:10:00,VALID,916.135,VALID,0,VALID,98.6078,VALID,-0.0679233,VALID,18.0346,VALID,89,VALID,0.156044,
2000-07-05, 00:11:00,VALID,916.125,VALID,0,VALID,98.6066,VALID,0.0339617,VALID,18.0337,VALID,87,VALID,0.478516,
2000-07-05, 00:12:00,VALID,916.121,VALID,0,VALID,98.6358,VALID,0.0509425,VALID,18.0203,VALID,91,VALID,0.385769,
2000-07-05, 00:13:00,VALID,916.107,VALID,0,VALID,98.6295,VALID,0.0339617,VALID,18.0081,VALID,93,VALID,0.106554,
2000-07-05, 00:14:00,VALID,916.109,VALID,0,VALID,98.6524,VALID,0.0509425,VALID,18.0076,VALID,106,VALID,0,
2000-07-05, 00:15:00,VALID,916.103,VALID,0,VALID,98.6663,VALID,0.0339617,VALID,18.0012,VALID,96,VALID,0,
2000-07-05, 00:16:00,VALID,916.114,VALID,0,VALID,98.6574,VALID,0.0509425,VALID,17.9818,VALID,91,VALID,0,
2000-07-05, 00:17:00,VALID,916.137,VALID,0,VALID,98.6663,VALID,0,VALID,17.9756,VALID,184,VALID,0.38737,
2000-07-05, 00:18:00,VALID,916.127,VALID,0,VALID,98.721,VALID,0.0849042,VALID,17.9717,VALID,118,VALID,0.33572,
2000-07-05, 00:19:00,VALID,916.119,VALID,0,VALID,98.7261,VALID,0.0509425,VALID,17.9949,VALID,91,VALID,0.445747,
2000-07-05, 00:20:00,VALID,916.096,VALID,0,VALID,98.6994,VALID,0.0339617,VALID,17.9689,VALID,92,VALID,0.808799,
2000-07-05, 00:21:00,VALID,916.074,VALID,0,VALID,98.6956,VALID,0.0509425,VALID,17.9654,VALID,98,VALID,0.40625,
2000-07-05, 00:22:00,VALID,916.097,VALID,0,VALID,98.6969,VALID,0.0509425,VALID,17.9659,VALID,298,VALID,0.151042,
2000-07-05, 00:23:00,VALID,916.102,VALID,0,VALID,98.7019,VALID,0.0169808,VALID,17.9758,VALID,243,VALID,0,
2000-07-05, 00:24:00,VALID,916.1,VALID,0,VALID,98.7172,VALID,0,VALID,17.9627,VALID,235,VALID,0,
2000-07-05, 00:25:00,VALID,916.072,VALID,0,VALID,98.7058,VALID,0.0679233,VALID,17.9654,VALID,242,VALID,0,
2000-07-05, 00:26:00,VALID,916.057,VALID,0,VALID,98.7019,VALID,0.0339617,VALID,17.9723,VALID,90,VALID,0.132123,
2000-07-05, 00:27:00,VALID,916.025,VALID,0,VALID,98.7083,VALID,0.0339617,VALID,17.9693,VALID,209,VALID,0.125,
2000-07-05, 00:28:00,VALID,916.003,VALID,0,VALID,98.7108,VALID,0,VALID,17.956,VALID,210,VALID,0.379808,
2000-07-05, 00:29:00,VALID,915.983,VALID,0,VALID,98.7325,VALID,0,VALID,17.953,VALID,189,VALID,0.166518,
2000-07-05, 00:30:00,VALID,915.967,VALID,0,VALID,98.7566,VALID,-0.0339617,VALID,17.9597,VALID,248,VALID,0.203536,
2000-07-05, 00:31:00,VALID,915.946,VALID,0,VALID,98.7782,VALID,0.0169808,VALID,17.953,VALID,286,VALID,0,
2000-07-05, 00:32:00,VALID,915.935,VALID,0,VALID,98.7782,VALID,0,VALID,17.9497,VALID,260,VALID,0,
2000-07-05, 00:33:00,VALID,915.94,VALID,0,VALID,98.7973,VALID,0.0339617,VALID,17.937,VALID,137,VALID,0.68533,
2000-07-05, 00:34:00,VALID,915.938,VALID,0,VALID,98.8075,VALID,0.0509425,VALID,17.9207,VALID,172,VALID,0.157118,
2000-07-05, 00:35:00,VALID,915.954,VALID,0,VALID,98.8304,VALID,0.0339617,VALID,17.9202,VALID,180,VALID,0,
2000-07-05, 00:36:00,VALID,915.956,VALID,0,VALID,98.8622,VALID,0.0509425,VALID,17.9271,VALID,101,VALID,0.521701,
2000-07-05, 00:37:00,VALID,915.95,VALID,0,VALID,98.8596,VALID,0,VALID,17.9373,VALID,99,VALID,0.125217,
2000-07-05, 00:38:00,VALID,915.962,VALID,0,VALID,98.8609,VALID,0.0169808,VALID,17.9204,VALID,146,VALID,0.0310444,
2000-07-05, 00:39:00,VALID,915.937,VALID,0,VALID,98.8736,VALID,0.0169808,VALID,17.9209,VALID,190,VALID,0,
2000-07-05, 00:40:00,VALID,915.919,VALID,0,VALID,98.8482,VALID,0.0169808,VALID,17.911,VALID,198,VALID,0,
2000-07-05, 00:41:00,VALID,915.92,VALID,0,VALID,98.8291,VALID,-0.0169808,VALID,17.9091,VALID,176,VALID,0,
2000-07-05, 00:42:00,VALID,915.908,VALID,0,VALID,98.8075,VALID,-0.0339617,VALID,17.9024,VALID,232,VALID,0,
2000-07-05, 00:43:00,VALID,915.913,VALID,0,VALID,98.777,VALID,-0.0339617,VALID,17.9091,VALID,262,VALID,0.147636,
2000-07-05, 00:44:00,VALID,915.898,VALID,0,VALID,98.7833,VALID,-0.0679233,VALID,17.9061,VALID,288,VALID,0,
2000-07-05, 00:45:00,VALID,915.9,VALID,0,VALID,98.7948,VALID,-0.0169808,VALID,17.9091,VALID,286,VALID,0,
2000-07-05, 00:46:00,VALID,915.893,VALID,0,VALID,98.7986,VALID,-0.0339617,VALID,17.919,VALID,282,VALID,0,
2000-07-05, 00:47:00,VALID,915.896,VALID,0,VALID,98.8189,VALID,-0.0339617,VALID,17.9121,VALID,334,VALID,0.0924479,
2000-07-05, 00:48:00,VALID,915.895,VALID,0,VALID,98.8062,VALID,-0.0339617,VALID,17.9057,VALID,187,VALID,0.12283,
2000-07-05, 00:49:00,VALID,915.886,VALID,0,VALID,98.7846,VALID,-0.0339617,VALID,17.896,VALID,237,VALID,0,
2000-07-05, 00:50:00,VALID,915.875,VALID,0,VALID,98.7871,VALID,-0.0679233,VALID,17.8992,VALID,191,VALID,0.134046,
2000-07-05, 00:51:00,VALID,915.842,VALID,0,VALID,98.7668,VALID,-0.0509425,VALID,17.9059,VALID,190,VALID,0,
2000-07-05, 00:52:00,VALID,915.849,VALID,0,VALID,98.7719,VALID,-0.0339617,VALID,17.9126,VALID,255,VALID,0,
2000-07-05, 00:53:00,VALID,915.852,VALID,0,VALID,98.763,VALID,-0.0509425,VALID,17.9057,VALID,230,VALID,0.341077,
2000-07-05, 00:54:00,VALID,915.844,VALID,0,VALID,98.7515,VALID,-0.0339617,VALID,17.8996,VALID,261,VALID,0.0890625,
2000-07-05, 00:55:00,VALID,915.816,VALID,0,VALID,98.7465,VALID,-0.0169808,VALID,17.8992,VALID,278,VALID,0.00760135,
2000-07-05, 00:56:00,VALID,915.819,VALID,0,VALID,98.7337,VALID,-0.0169808,VALID,17.9024,VALID,288,VALID,0.0011489,
2000-07-05, 00:57:00,VALID,915.826,VALID,0,VALID,98.7541,VALID,-0.0169808,VALID,17.9057,VALID,145,VALID,0,
2000-07-05, 00:58:00,VALID,915.827,VALID,0,VALID,98.7312,VALID,0,VALID,17.9089,VALID,174,VALID,0.86859,
2000-07-05, 00:59:00,VALID,915.827,VALID,0,VALID,98.5646,VALID,-0.0339617,VALID,17.9379,VALID,195,VALID,0.60692,
2000-07-05, 01:00:00,VALID,915.832,VALID,0,VALID,98.3955,VALID,-0.0339617,VALID,17.9737,VALID,140,VALID,0.129934,
2000-07-05, 01:01:00,VALID,915.818,VALID,0,VALID,98.2454,VALID,-0.0509425,VALID,17.9892,VALID,72,VALID,0.448214,
2000-07-05, 01:02:00,VALID,915.834,VALID,0,VALID,98.1017,VALID,0,VALID,18.0125,VALID,110,VALID,0.400608,
2000-07-05, 01:03:00,VALID,915.831,VALID,0,VALID,97.9453,VALID,0,VALID,18.0055,VALID,329,VALID,0.389323,
2000-07-05, 01:04:00,VALID,915.837,VALID,0,VALID,97.7012,VALID,0,VALID,18.0215,VALID,189,VALID,0.442057,
2000-07-05, 01:05:00,VALID,915.812,VALID,0,VALID,97.6122,VALID,0,VALID,18.0251,VALID,239,VALID,0.668791,
2000-07-05, 01:06:00,VALID,915.822,VALID,0,VALID,97.5867,VALID,0,VALID,18.0411,VALID,295,VALID,0.564453,
2000-07-05, 01:07:00,VALID,915.822,VALID,0,VALID,97.6058,VALID,0,VALID,18.0376,VALID,218,VALID,0.148003,
2000-07-05, 01:08:00,VALID,915.817,VALID,0,VALID,97.5982,VALID,0,VALID,18.0212,VALID,114,VALID,0.314145,
2000-07-05, 01:09:00,VALID,915.792,VALID,0,VALID,97.2676,VALID,-0.0339617,VALID,18.0381,VALID,238,VALID,0.872321,
2000-07-05, 01:10:00,VALID,915.794,VALID,0,VALID,97.0921,VALID,-0.0509425,VALID,18.1123,VALID,101,VALID,0.709671,
2000-07-05, 01:11:00,VALID,915.789,VALID,0,VALID,96.8848,VALID,0.0169808,VALID,18.138,VALID,268,VALID,0.131893,
2000-07-05, 01:12:00,VALID,915.781,VALID,0,VALID,96.6915,VALID,-0.0339617,VALID,18.1412,VALID,12,VALID,0,
2000-07-05, 01:13:00,VALID,915.784,VALID,0,VALID,96.6547,VALID,-0.0169808,VALID,18.1543,VALID,176,VALID,0,
2000-07-05, 01:14:00,VALID,915.785,VALID,0,VALID,96.5924,VALID,-0.0509425,VALID,18.1543,VALID,201,VALID,0,
2000-07-05, 01:15:00,VALID,915.783,VALID,0,VALID,95.762,VALID,-0.0339617,VALID,18.1476,VALID,243,VALID,0.573396,
2000-07-05, 01:16:00,VALID,915.772,VALID,0,VALID,95.8281,VALID,0,VALID,18.2095,VALID,250,VALID,0.000446429,
2000-07-05, 01:17:00,VALID,915.768,VALID,0,VALID,95.9209,VALID,0,VALID,18.2092,VALID,281,VALID,0.103516,
2000-07-05, 01:18:00,VALID,915.746,VALID,0,VALID,96.1753,VALID,0,VALID,18.1991,VALID,275,VALID,0.143663,
2000-07-05, 01:19:00,VALID,915.733,VALID,0,VALID,96.2363,VALID,0,VALID,18.1737,VALID,279,VALID,0.352648,
2000-07-05, 01:20:00,VALID,915.737,VALID,0,VALID,96.3673,VALID,-0.0169808,VALID,18.1513,VALID,259,VALID,0,
2000-07-05, 01:21:00,VALID,915.75,VALID,0,VALID,96.4232,VALID,0,VALID,18.1121,VALID,102,VALID,0.299045,
2000-07-05, 01:22:00,VALID,915.733,VALID,0,VALID,96.4525,VALID,0,VALID,18.0997,VALID,137,VALID,0.230252,
2000-07-05, 01:23:00,VALID,915.735,VALID,0,VALID,96.3012,VALID,-0.0339617,VALID,18.0706,VALID,178,VALID,0.273026,
2000-07-05, 01:24:00,VALID,915.703,VALID,0,VALID,95.6234,VALID,-0.0679233,VALID,18.0865,VALID,122,VALID,0.834598,
2000-07-05, 01:25:00,VALID,915.684,VALID,0,VALID,95.3754,VALID,-0.0509425,VALID,18.1709,VALID,104,VALID,0.775971,
2000-07-05, 01:26:00,VALID,915.674,VALID,0,VALID,95.0423,VALID,0,VALID,18.1899,VALID,99,VALID,0.367417,
2000-07-05, 01:27:00,VALID,915.691,VALID,0,VALID,95.2114,VALID,-0.0339617,VALID,18.206,VALID,116,VALID,0.126478,
2000-07-05, 01:28:00,VALID,915.686,VALID,0,VALID,94.5591,VALID,0,VALID,18.1832,VALID,162,VALID,0.586739,
2000-07-05, 01:29:00,VALID,915.647,VALID,0,VALID,94.9711,VALID,0,VALID,18.2252,VALID,102,VALID,0.79375,
2000-07-05, 01:30:00,VALID,915.631,VALID,0,VALID,94.4459,VALID,0,VALID,18.2383,VALID,133,VALID,0.836143,
2000-07-05, 01:31:00,VALID,915.613,VALID,0,VALID,93.4668,VALID,-0.0169808,VALID,18.2994,VALID,276,VALID,0.526563,
2000-07-05, 01:32:00,VALID,915.602,VALID,0,VALID,92.6326,VALID,-0.0509425,VALID,18.4584,VALID,309,VALID,1.33681,
2000-07-05, 01:33:00,VALID,915.571,VALID,0,VALID,93.0293,VALID,-0.0169808,VALID,18.5675,VALID,322,VALID,0.180339,
2000-07-05, 01:34:00,VALID,915.57,VALID,0,VALID,93.3383,VALID,0,VALID,18.5318,VALID,321,VALID,0.00998264,
2000-07-05, 01:35:00,VALID,915.561,VALID,0,VALID,92.8449,VALID,0,VALID,18.4932,VALID,207,VALID,0.638158,
2000-07-05, 01:36:00,VALID,915.513,VALID,0,VALID,93.4375,VALID,-0.0339617,VALID,18.4997,VALID,82,VALID,0.659505,
2000-07-05, 01:37:00,VALID,915.502,VALID,0,VALID,94.0631,VALID,0.0509425,VALID,18.4452,VALID,76,VALID,0.338542,
2000-07-05, 01:38:00,VALID,915.497,VALID,0,VALID,94.1115,VALID,-0.0169808,VALID,18.3606,VALID,112,VALID,0.702508,
2000-07-05, 01:39:00,VALID,915.452,VALID,0,VALID,94.3086,VALID,-0.0169808,VALID,18.3121,VALID,63,VALID,0.149107,
2000-07-05, 01:40:00,VALID,915.452,VALID,0,VALID,94.3696,VALID,0,VALID,18.2865,VALID,98,VALID,0.451436,
2000-07-05, 01:41:00,VALID,915.418,VALID,0,VALID,94.5184,VALID,0.0509425,VALID,18.269,VALID,118,VALID,0.169118,
2000-07-05, 01:42:00,VALID,915.393,VALID,0,VALID,94.8693,VALID,0.0679233,VALID,18.2498,VALID,150,VALID,0,
2000-07-05, 01:43:00,VALID,915.397,VALID,0,VALID,95.1262,VALID,0.0679233,VALID,18.2106,VALID,154,VALID,0,
2000-07-05, 01:44:00,VALID,915.376,VALID,0,VALID,95.3564,VALID,0.0849042,VALID,18.1753,VALID,142,VALID,0,
2000-07-05, 01:45:00,VALID,915.355,VALID,0,VALID,95.495,VALID,0.0509425,VALID,18.1331,VALID,168,VALID,0,
2000-07-05, 01:46:00,VALID,915.332,VALID,0,VALID,95.8014,VALID,0.0679233,VALID,18.1137,VALID,97,VALID,0,
2000-07-05, 01:47:00,VALID,915.328,VALID,0,VALID,95.8675,VALID,0.0509425,VALID,18.1011,VALID,242,VALID,0,
2000-07-05, 01:48:00,VALID,915.329,VALID,0,VALID,95.9553,VALID,0.0679233,VALID,18.0651,VALID,158,VALID,0,
2000-07-05, 01:49:00,VALID,915.348,VALID,0,VALID,96.0672,VALID,0.0509425,VALID,18.0655,VALID,159,VALID,0,
2000-07-05, 01:50:00,VALID,915.366,VALID,0,VALID,96.1511,VALID,0.0679233,VALID,18.0556,VALID,183,VALID,0,
2000-07-05, 01:51:00,VALID,915.371,VALID,0,VALID,96.2198,VALID,0.0509425,VALID,18.0526,VALID,156,VALID,0,
2000-07-05, 01:52:00,VALID,915.368,VALID,0,VALID,96.2579,VALID,0.0679233,VALID,18.0263,VALID,161,VALID,0,
2000-07-05, 01:53:00,VALID,915.365,VALID,0,VALID,96.2516,VALID,0.0679233,VALID,18.0236,VALID,131,VALID,0,
2000-07-05, 01:54:00,VALID,915.368,VALID,0,VALID,96.2655,VALID,0.0849042,VALID,18.0164,VALID,164,VALID,0,
2000-07-05, 01:55:00,VALID,915.375,VALID,0,VALID,96.2986,VALID,0.0509425,VALID,18.0201,VALID,159,VALID,0,
2000-07-05, 01:56:00,VALID,915.415,VALID,0,VALID,96.3088,VALID,-0.0169808,VALID,18.0279,VALID,141,VALID,0,
2000-07-05, 01:57:00,VALID,915.431,VALID,0,VALID,96.2897,VALID,0,VALID,18.0314,VALID,180,VALID,0,
2000-07-05, 01:58:00,VALID,915.449,VALID,0,VALID,96.2452,VALID,-0.0169808,VALID,18.0344,VALID,202,VALID,0,
2000-07-05, 01:59:00,VALID,915.466,VALID,0,VALID,96.1829,VALID,-0.0169808,VALID,18.051,VALID,197,VALID,0,
2000-07-05, 02:00:00,VALID,915.49,VALID,0,VALID,96.1613,VALID,0,VALID,18.0475,VALID,134,VALID,0,
2000-07-05, 02:01:00,VALID,915.514,VALID,0,VALID,96.2223,VALID,-0.0339617,VALID,18.0344,VALID,133,VALID,0,
2000-07-05, 02:02:00,VALID,915.523,VALID,0,VALID,96.2999,VALID,-0.0169808,VALID,18.0247,VALID,135,VALID,0,
2000-07-05, 02:03:00,VALID,915.533,VALID,0,VALID,96.3177,VALID,0,VALID,18.0155,VALID,249,VALID,0,
2000-07-05, 02:04:00,VALID,915.564,VALID,0,VALID,96.38,VALID,-0.0339617,VALID,18.0115,VALID,245,VALID,0,
2000-07-05, 02:05:00,VALID,915.565,VALID,0,VALID,96.5682,VALID,-0.0169808,VALID,18.0085,VALID,99,VALID,0.780633,
2000-07-05, 02:06:00,VALID,915.57,VALID,0,VALID,96.6915,VALID,-0.0339617,VALID,18.0016,VALID,116,VALID,0.123698,
2000-07-05, 02:07:00,VALID,915.575,VALID,0,VALID,96.7106,VALID,-0.0169808,VALID,17.9825,VALID,137,VALID,0,
2000-07-05, 02:08:00,VALID,915.565,VALID,0,VALID,96.6877,VALID,-0.0169808,VALID,17.9599,VALID,145,VALID,0,
2000-07-05, 02:09:00,VALID,915.58,VALID,0,VALID,96.6776,VALID,-0.0339617,VALID,17.9762,VALID,145,VALID,0,
2000-07-05, 02:10:00,VALID,915.573,VALID,0,VALID,96.7221,VALID,-0.0509425,VALID,17.9898,VALID,156,VALID,0,
2000-07-05, 02:11:00,VALID,915.566,VALID,0,VALID,96.7017,VALID,-0.0339617,VALID,17.9991,VALID,154,VALID,0,
2000-07-05, 02:12:00,VALID,915.543,VALID,0,VALID,96.7157,VALID,-0.0339617,VALID,17.9991,VALID,119,VALID,0,
2000-07-05, 02:13:00,VALID,915.509,VALID,0,VALID,96.558,VALID,-0.0509425,VALID,18.0152,VALID,184,VALID,0,
2000-07-05, 02:14:00,VALID,915.484,VALID,0,VALID,96.4067,VALID,0,VALID,18.015,VALID,224,VALID,0,
2000-07-05, 02:15:00,VALID,915.47,VALID,0,VALID,96.2236,VALID,-0.0339617,VALID,18.015,VALID,237,VALID,0,
2000-07-05, 02:16:00,VALID,915.476,VALID,0,VALID,96.1117,VALID,-0.0169808,VALID,18.0441,VALID,164,VALID,0.402455,
2000-07-05, 02:17:00,VALID,915.444,VALID,0,VALID,96.132,VALID,0,VALID,18.083,VALID,351,VALID,0.436415,
2000-07-05, 02:18:00,VALID,915.45,VALID,0,VALID,95.6844,VALID,-0.0509425,VALID,18.0734,VALID,132,VALID,0.960286,
2000-07-05, 02:19:00,VALID,915.415,VALID,0,VALID,95.3068,VALID,-0.0169808,VALID,18.1117,VALID,61,VALID,0.436632,
2000-07-05, 02:20:00,VALID,915.408,VALID,0,VALID,94.2717,VALID,-0.0339617,VALID,18.1889,VALID,212,VALID,0.900699,
2000-07-05, 02:21:00,VALID,915.391,VALID,0,VALID,94.1916,VALID,-0.0509425,VALID,18.2927,VALID,80,VALID,0.873698,
2000-07-05, 02:22:00,VALID,915.391,VALID,0,VALID,94.1966,VALID,-0.0679233,VALID,18.3447,VALID,102,VALID,0.683594,
2000-07-05, 02:23:00,VALID,915.393,VALID,0,VALID,93.9271,VALID,-0.0509425,VALID,18.335,VALID,155,VALID,0.54009,
2000-07-05, 02:24:00,VALID,915.395,VALID,0,VALID,93.7974,VALID,-0.0339617,VALID,18.3573,VALID,174,VALID,0.237723,
2000-07-05, 02:25:00,VALID,915.372,VALID,0,VALID,93.8584,VALID,-0.0509425,VALID,18.3673,VALID,188,VALID,0.339949,
2000-07-05, 02:26:00,VALID,915.374,VALID,0,VALID,94.0161,VALID,-0.0509425,VALID,18.367,VALID,232,VALID,0.165211,
2000-07-05, 02:27:00,VALID,915.359,VALID,0,VALID,93.9818,VALID,-0.0509425,VALID,18.3673,VALID,160,VALID,0.256546,
2000-07-05, 02:28:00,VALID,915.342,VALID,0,VALID,93.8622,VALID,-0.0339617,VALID,18.3541,VALID,186,VALID,0.419471,
2000-07-05, 02:29:00,VALID,915.323,VALID,0,VALID,94.2717,VALID,-0.0339617,VALID,18.3578,VALID,220,VALID,0.389509,
2000-07-05, 02:30:00,VALID,915.303,VALID,0,VALID,94.6621,VALID,-0.0679233,VALID,18.3414,VALID,303,VALID,0.0810033,
2000-07-05, 02:31:00,VALID,915.288,VALID,0,VALID,94.8185,VALID,0,VALID,18.3054,VALID,218,VALID,0.267411,
2000-07-05, 02:32:00,VALID,915.264,VALID,0,VALID,94.8884,VALID,-0.0169808,VALID,18.2761,VALID,213,VALID,0.00802951,
2000-07-05, 02:33:00,VALID,915.256,VALID,0,VALID,94.5565,VALID,-0.0509425,VALID,18.2344,VALID,184,VALID,0.292535,
2000-07-05, 02:34:00,VALID,915.228,VALID,0,VALID,94.1115,VALID,-0.0169808,VALID,18.251,VALID,24,VALID,0.378472,
2000-07-05, 02:35:00,VALID,915.231,VALID,0,VALID,94.0657,VALID,-0.0679233,VALID,18.296,VALID,347,VALID,0.173931,
2000-07-05, 02:36:00,VALID,915.202,VALID,0,VALID,94.072,VALID,-0.0509425,VALID,18.3156,VALID,118,VALID,0.252604,
2000-07-05, 02:37:00,VALID,915.172,VALID,0,VALID,94.2017,VALID,0,VALID,18.3087,VALID,137,VALID,0.241753,
2000-07-05, 02:38:00,VALID,915.162,VALID,0,VALID,94.0644,VALID,-0.0339617,VALID,18.3061,VALID,356,VALID,0.868627,
2000-07-05, 02:39:00,VALID,915.163,VALID,0,VALID,93.674,VALID,-0.0509425,VALID,18.2893,VALID,197,VALID,0.653348,
2000-07-05, 02:40:00,VALID,915.143,VALID,0,VALID,93.6257,VALID,-0.0339617,VALID,18.335,VALID,138,VALID,0.0502534,
2000-07-05, 02:41:00,VALID,915.147,VALID,0,VALID,94.0555,VALID,0.0849042,VALID,18.3497,VALID,136,VALID,0,
2000-07-05, 02:42:00,VALID,915.157,VALID,0,VALID,94.3111,VALID,0.0509425,VALID,18.3306,VALID,180,VALID,0.251478,
2000-07-05, 02:43:00,VALID,915.119,VALID,0,VALID,94.3454,VALID,0.0679233,VALID,18.2985,VALID,86,VALID,0.372396,
2000-07-05, 02:44:00,VALID,915.116,VALID,0,VALID,94.4217,VALID,0.0679233,VALID,18.2628,VALID,142,VALID,0.213393,
2000-07-05, 02:45:00,VALID,915.108,VALID,0,VALID,94.3047,VALID,0.0679233,VALID,18.2173,VALID,182,VALID,0.237253,
2000-07-05, 02:46:00,VALID,915.11,VALID,0,VALID,94.4662,VALID,0.0509425,VALID,18.2014,VALID,203,VALID,0.295312,
2000-07-05, 02:47:00,VALID,915.089,VALID,0,VALID,94.039,VALID,0.0679233,VALID,18.1917,VALID,174,VALID,0.680773,
2000-07-05, 02:48:00,VALID,915.069,VALID,0,VALID,93.0064,VALID,0.0339617,VALID,18.2468,VALID,128,VALID,1.20877,
2000-07-05, 02:49:00,VALID,915.04,VALID,0,VALID,93.0827,VALID,0.0339617,VALID,18.379,VALID,109,VALID,1.05469,
2000-07-05, 02:50:00,VALID,915.064,VALID,0,VALID,93.4044,VALID,0.0849042,VALID,18.4019,VALID,96,VALID,0.396793,
2000-07-05, 02:51:00,VALID,915.092,VALID,0,VALID,93.2887,VALID,0.101885,VALID,18.3793,VALID,152,VALID,0.374349,
2000-07-05, 02:52:00,VALID,915.08,VALID,0,VALID,93.4807,VALID,0.0679233,VALID,18.3631,VALID,226,VALID,0.0479601,
2000-07-05, 02:53:00,VALID,915.096,VALID,0,VALID,93.4693,VALID,0.0509425,VALID,18.3564,VALID,2,VALID,0.735403,
2000-07-05, 02:54:00,VALID,915.103,VALID,0,VALID,93.201,VALID,0.0679233,VALID,18.3209,VALID,339,VALID,1.2529,
2000-07-05, 02:55:00,VALID,915.055,VALID,0,VALID,92.0578,VALID,0.0339617,VALID,18.3793,VALID,28,VALID,1.00422,
2000-07-05, 02:56:00,VALID,915.072,VALID,0,VALID,91.6407,VALID,-0.0339617,VALID,18.5161,VALID,105,VALID,0.673483,
2000-07-05, 02:57:00,VALID,915.069,VALID,0,VALID,90.7862,VALID,-0.0339617,VALID,18.6033,VALID,101,VALID,1.22973,
2000-07-05, 02:58:00,VALID,915.032,VALID,0,VALID,90.2763,VALID,-0.0339617,VALID,18.7032,VALID,101,VALID,1.5613,
2000-07-05, 02:59:00,VALID,914.994,VALID,0,VALID,90.275,VALID,-0.0339617,VALID,18.7717,VALID,141,VALID,0.260714,
2000-07-05, 03:00:00,VALID,915.021,VALID,0,VALID,89.3913,VALID,-0.0339617,VALID,18.8006,VALID,250,VALID,0.987664,
2000-07-05, 03:01:00,VALID,915.042,VALID,0,VALID,89.9482,VALID,-0.0849042,VALID,18.8195,VALID,312,VALID,0.451116,
2000-07-05, 03:02:00,VALID,915.059,VALID,0,VALID,89.554,VALID,-0.0169808,VALID,18.8363,VALID,314,VALID,0.524523,
2000-07-05, 03:03:00,VALID,915.064,VALID,0,VALID,89.1115,VALID,-0.0509425,VALID,18.8585,VALID,125,VALID,1.09657,
2000-07-05, 03:04:00,VALID,915.048,VALID,0,VALID,89.5019,VALID,0,VALID,18.9007,VALID,106,VALID,0.801866,
2000-07-05, 03:05:00,VALID,915.067,VALID,0,VALID,89.6964,VALID,0,VALID,18.8938,VALID,101,VALID,1.02961,
2000-07-05, 03:06:00,VALID,915.091,VALID,0,VALID,90.4937,VALID,-0.0509425,VALID,18.852,VALID,140,VALID,0.130425,
2000-07-05, 03:07:00,VALID,915.09,VALID,0,VALID,90.2127,VALID,-0.0509425,VALID,18.7839,VALID,259,VALID,0.0661892,
2000-07-05, 03:08:00,VALID,915.068,VALID,0,VALID,89.8414,VALID,-0.0339617,VALID,18.7581,VALID,154,VALID,0.223684,
2000-07-05, 03:09:00,VALID,915.043,VALID,0,VALID,90.6896,VALID,-0.0339617,VALID,18.7708,VALID,90,VALID,0.0375,
2000-07-05, 03:10:00,VALID,915.025,VALID,0,VALID,91.408,VALID,-0.0849042,VALID,18.7293,VALID,98,VALID,0.0703125,
2000-07-05, 03:11:00,VALID,915.018,VALID,0,VALID,91.7361,VALID,-0.0339617,VALID,18.6418,VALID,216,VALID,0.478401,
2000-07-05, 03:12:00,VALID,915.005,VALID,0,VALID,92.1252,VALID,-0.0679233,VALID,18.5839,VALID,156,VALID,0.43201,
2000-07-05, 03:13:00,VALID,914.988,VALID,0,VALID,91.862,VALID,-0.0509425,VALID,18.5451,VALID,140,VALID,0.768029,
2000-07-05, 03:14:00,VALID,914.936,VALID,0,VALID,91.0265,VALID,-0.0339617,VALID,18.5509,VALID,283,VALID,1.01384,
2000-07-05, 03:15:00,VALID,914.958,VALID,0,VALID,89.8045,VALID,-0.0169808,VALID,18.645,VALID,241,VALID,1.02282,
2000-07-05, 03:16:00,VALID,914.906,VALID,0,VALID,88.477,VALID,-0.0509425,VALID,18.858,VALID,337,VALID,0.654911,
2000-07-05, 03:17:00,VALID,914.889,VALID,0,VALID,88.7135,VALID,0,VALID,19.0133,VALID,95,VALID,0.878255,
2000-07-05, 03:18:00,VALID,914.908,VALID,0,VALID,88.4935,VALID,-0.0509425,VALID,19.0359,VALID,176,VALID,0.384983,
2000-07-05, 03:19:00,VALID,914.917,VALID,0,VALID,88.4261,VALID,-0.0339617,VALID,19.0456,VALID,168,VALID,0.737413,
2000-07-05, 03:20:00,VALID,914.88,VALID,0,VALID,88.6931,VALID,-0.0339617,VALID,19.0255,VALID,55,VALID,0.818051,
2000-07-05, 03:21:00,VALID,914.86,VALID,0,VALID,87.7191,VALID,0,VALID,19.0198,VALID,252,VALID,0.897569,
2000-07-05, 03:22:00,VALID,914.823,VALID,0,VALID,86.7425,VALID,-0.0509425,VALID,19.1003,VALID,174,VALID,0.384332,
2000-07-05, 03:23:00,VALID,914.801,VALID,0,VALID,87.5106,VALID,-0.0339617,VALID,19.2041,VALID,114,VALID,0.264391,
2000-07-05, 03:24:00,VALID,914.797,VALID,0,VALID,87.5779,VALID,-0.0509425,VALID,19.197,VALID,102,VALID,0.996205,
2000-07-05, 03:25:00,VALID,914.768,VALID,0,VALID,88.1438,VALID,-0.0169808,VALID,19.1651,VALID,78,VALID,0.502534,
2000-07-05, 03:26:00,VALID,914.774,VALID,0,VALID,88.5037,VALID,0.0679233,VALID,19.0857,VALID,9,VALID,0.508961,
2000-07-05, 03:27:00,VALID,914.777,VALID,0,VALID,87.9175,VALID,0.101885,VALID,19.0598,VALID,76,VALID,1.25528,
2000-07-05, 03:28:00,VALID,914.796,VALID,0,VALID,88.7847,VALID,0.0169808,VALID,19.0568,VALID,96,VALID,1.1885,
2000-07-05, 03:29:00,VALID,914.814,VALID,0,VALID,89.1675,VALID,-0.0339617,VALID,18.987,VALID,107,VALID,0.855134,
2000-07-05, 03:30:00,VALID,914.82,VALID,0,VALID,88.9894,VALID,-0.0169808,VALID,18.9226,VALID,98,VALID,0.947574,
2000-07-05, 03:31:00,VALID,914.803,VALID,0,VALID,89.3429,VALID,-0.0679233,VALID,18.8675,VALID,107,VALID,0.675223,
2000-07-05, 03:32:00,VALID,914.806,VALID,0,VALID,89.8376,VALID,-0.0679233,VALID,18.8456,VALID,91,VALID,0.878689,
2000-07-05, 03:33:00,VALID,914.815,VALID,0,VALID,89.966,VALID,-0.0339617,VALID,18.7999,VALID,94,VALID,1.18511,
2000-07-05, 03:34:00,VALID,914.824,VALID,0,VALID,89.7231,VALID,-0.0339617,VALID,18.7705,VALID,97,VALID,1.55729,